Weather observations for the past three days for
Rolla / Vichy, Rolla National Airport
Imperial (Metric)
Date Time (cdt) Wind (mph) Vis. (mi.) Weather Sky Cond. Temperature (ºF) Relative Humidity Wind Chill (°F) Heat Index (°F) Pressure Precipitation (in)
Air Dwpt 6 hour altimeter (in) sea level (mb) 1 hr 3 hr 6 hr
Max. Min.
03 13:53 Vrbl 7 10.00 Fair CLR 95 68 41% 100 29.98 1013.5
03 12:53 SW 3 10.00 Fair CLR 93.9 70 93.9 73 46% 100 30 1014.3
03 11:53 SW 8 10.00 Fair CLR 91 70 50% 97 30.02 1015.0
03 10:53 SW 6 10.00 Fair CLR 89.1 71.1 55% 95 30.04 1015.6
03 09:53 SW 9 10.00 Fair CLR 84.9 71.1 63% 90 30.04 1015.7
03 08:53 SW 9 10.00 Fair CLR 82 71.1 69% 86 30.04 1015.8
03 07:53 S 9 10.00 Fair CLR 78.1 70 76% 80 30.04 1015.7
03 06:53 S 8 10.00 Fair CLR 73 68 82 72 84% 30.03 1015.3
03 05:53 SW 8 10.00 Fair CLR 73.9 68 82% 30.02 1015.0
03 04:53 S 9 10.00 Fair CLR 75.9 68 77% 77 30.01 1014.7
03 03:53 S 8 10.00 Fair CLR 77 66.9 71% 79 30.01 1014.7
03 02:53 S 8 10.00 Fair CLR 78.1 68 71% 80 30 1014.4
03 01:53 S 8 10.00 Fair CLR 80.1 68 67% 83 30.01 1014.6
03 00:53 S 10 10.00 Fair CLR 82 68 89.1 80.1 63% 85 30 1014.4
02 23:53 S 9 10.00 Fair CLR 82 68 63% 85 30 1014.2
02 22:53 SE 7 10.00 Fair CLR 80.1 70 71% 83 30 1014.2
02 21:53 SE 8 10.00 Fair CLR 81 72 74% 85 29.99 1014.1
02 20:53 SE 8 10.00 A Few Clouds FEW090 82.9 72 70% 88 29.98 1013.8
02 19:53 E 8 10.00 Mostly Cloudy BKN095 84.9 71.1 63% 90 29.96 1013.1
02 18:53 E 6 10.00 Fair CLR 89.1 71.1 96.1 89.1 55% 95 29.96 1013.1
02 17:53 SE 6 10.00 Fair CLR 93 71.1 49% 100 29.97 1013.2
02 16:53 SE 6 10.00 Mostly Cloudy SCT080 BKN100 93 70 47% 99 29.97 1013.4
02 15:53 E 8 10.00 Mostly Cloudy SCT075 BKN090 91.9 70 49% 98 29.98 1013.8
02 14:53 E 6 10.00 A Few Clouds FEW100 95 68 41% 100 30.01 1014.5
02 13:53 S 6 10.00 A Few Clouds FEW070 93.9 70 46% 100 30.03 1015.3
02 12:53 SW 8 10.00 Fair CLR 91 70 93.9 75 50% 97 30.05 1016.0
02 11:53 SW 7 10.00 Fair CLR 93 71.1 49% 100 30.07 1016.6
02 10:53 W 8 10.00 Fair CLR 89.1 71.1 55% 95 30.08 1017.2
02 09:53 SW 12 10.00 Fair CLR 87.1 72 61% 94 30.08 1017.2
02 08:53 SW 10 10.00 Fair CLR 82.9 70 65% 87 30.08 1017.3
02 07:53 S 8 10.00 Fair CLR 79 69.1 72% 82 30.08 1017.3
02 06:53 S 8 10.00 Fair CLR 75 66.9 82 75 76% 76 30.07 1016.9
02 05:53 S 9 10.00 Fair CLR 75.9 66.9 74% 77 30.06 1016.4
02 04:53 S 9 10.00 Fair CLR 78.1 66.9 69% 80 30.05 1015.9
02 03:53 S 9 10.00 Fair CLR 78.1 66.9 69% 80 30.05 1015.8
02 02:53 S 10 10.00 Fair CLR 80.1 66.9 64% 82 30.04 1015.6
02 01:53 S 12 10.00 Fair CLR 82 66.9 60% 85 30.04 1015.7
02 00:53 S 10 10.00 Fair CLR 81 68 89.1 80.1 65% 84 30.04 1015.6
01 23:53 S 8 10.00 Fair CLR 81 69.1 67% 84 30.03 1015.5
01 22:53 SE 9 10.00 Fair CLR 81 71.1 72% 85 30.03 1015.3
01 21:53 SE 8 10.00 Fair CLR 82 71.1 69% 86 30.02 1015.2
01 20:53 SE 8 10.00 Partly Cloudy SCT085 82.9 71.1 67% 88 30.01 1014.7
01 19:53 E 7 10.00 Fair CLR 82.9 71.1 67% 88 30 1014.5
01 18:53 E 6 10.00 Fair CLR 89.1 71.1 96.1 89.1 55% 95 30 1014.5
01 17:53 E 7 10.00 Fair CLR 93 70 47% 99 30.01 1014.7
01 16:53 E 8 10.00 Fair CLR 95 69.1 43% 101 30.01 1014.6
01 15:53 E 7 10.00 Fair CLR 96.1 66 37% 100 30.02 1015.1
01 14:53 SE 3 10.00 A Few Clouds FEW090 93.9 69.1 44% 99 30.04 1015.7
01 13:53 S 5 10.00 Fair CLR 93.9 68 43% 98 30.06 1016.3
01 12:53 Calm 10.00 Fair CLR 93.9 69.1 93.9 73.9 44% 99 30.07 1016.8
01 11:53 W 5 10.00 Fair CLR 91 70 50% 97 30.09 1017.6
01 10:53 SW 7 10.00 Fair CLR 87.1 70 57% 92 30.1 1017.8
01 09:53 SW 10 10.00 Fair CLR 84 69.1 61% 88 30.1 1018.0
01 08:53 S 13 10.00 Fair CLR 81 69.1 67% 84 30.11 1018.1
01 07:53 S 9 10.00 Fair CLR 77 66.9 71% 79 30.1 1017.9
01 06:53 S 10 10.00 Fair CLR 73.9 66 80.1 73 76% 30.08 1017.2
01 05:53 S 10 10.00 Fair CLR 73 64.9 76% 30.07 1016.8
01 04:53 S 10 10.00 Fair CLR 73 64 74% 30.06 1016.5
01 03:53 SW 10 10.00 Fair CLR 75 64 69% 77 30.06 1016.2
01 02:53 S 10 10.00 Fair CLR 75.9 64 67% 78 30.04 1015.9
01 01:53 S 9 10.00 Fair CLR 77 64 64% 79 30.05 1016.0
01 00:53 S 10 10.00 Fair CLR 80.1 64.9 88 79 60% 82 30.05 1015.9
31 23:53 S 9 10.00 Fair CLR 80.1 66.9 64% 82 30.04 1015.7
31 21:53 SE 8 10.00 Fair CLR 80.1 69.1 69% 83 30.04 1015.8
31 20:53 SE 9 10.00 Fair CLR 81 70 69% 84 30.02 1015.3
31 19:53 SE 8 10.00 Fair CLR 84 70 63% 88 30 1014.7
31 18:53 SE 9 10.00 Fair CLR 88 71.1 97 88 57% 94 30 1014.4
31 17:53 SE 7 10.00 Fair CLR 93 69.1 46% 98 29.99 1014.2
31 16:53 SE 8 10.00 A Few Clouds FEW085 96.1 66 37% 100 30 1014.2
31 15:53 S 10 10.00 Fair CLR 97 64.9 35% 100 30.01 1014.5
31 14:53 SE 7 10.00 A Few Clouds FEW075 96.1 64.9 36% 99 30.02 1015.1
Date Time (cdt) Wind (mph) Vis. (mi.) Weather Sky Cond. Air Dwpt Max. Min. Relative Humidity Wind Chill (°F) Heat Index (°F) altimeter (in) sea level (mb) 1 hr 3 hr 6 hr
6 hour
Temperature (ºF) Pressure Precipitation (in)